| time (UTC) | temp F | wind direction | speed MPH | gust MPH | rain 1hr in | rain 24hr in | rain mn in | humidity % | barometer mb |
| 20260509022248 | 53 | 172 | 0.0 | 0.0 | 0.00 | 0.01 | 0.01 | 62 | 1015.5 |
| 20260509021745 | 53 | 165 | 0.0 | 0.0 | 0.00 | 0.01 | 0.01 | 61 | 1015.6 |
| 20260509021242 | 53 | 165 | 0.0 | 0.0 | 0.00 | 0.01 | 0.01 | 61 | 1015.6 |
| 20260509020740 | 53 | 165 | 0.0 | 1.0 | 0.00 | 0.01 | 0.01 | 60 | 1015.8 |
| 20260509020237 | 53 | 180 | 0.0 | 0.0 | 0.00 | 0.01 | 0.01 | 59 | 1015.7 |
| 20260509015735 | 54 | 270 | 0.0 | 0.0 | 0.00 | 0.01 | 0.01 | 59 | 1015.7 |
| 20260509015233 | 54 | 270 | 0.0 | 0.0 | 0.00 | 0.01 | 0.01 | 59 | 1015.6 |
| 20260509014729 | 54 | 270 | 0.0 | 0.0 | 0.00 | 0.01 | 0.01 | 59 | 1015.5 |
| 20260509014226 | 54 | 270 | 0.0 | 0.0 | 0.00 | 0.01 | 0.01 | 58 | 1015.8 |
| 20260509013723 | 54 | 270 | 0.0 | 0.0 | 0.00 | 0.01 | 0.01 | 57 | 1015.5 |
| 20260509013213 | 54 | 270 | 0.0 | 0.0 | 0.00 | 0.01 | 0.01 | 56 | 1015.2 |
| 20260509012710 | 54 | 270 | 0.0 | 0.0 | 0.00 | 0.01 | 0.01 | 56 | 1015.5 |
| 20260509012206 | 55 | 270 | 0.0 | 0.0 | 0.00 | 0.01 | 0.01 | 56 | 1015.6 |
| 20260509011704 | 55 | 270 | 0.0 | 0.0 | 0.00 | 0.01 | 0.01 | 55 | 1015.4 |
| 20260509011202 | 55 | 270 | 0.0 | 0.0 | 0.00 | 0.01 | 0.01 | 54 | 1015.5 |
| 20260509010659 | 55 | 270 | 0.0 | 0.0 | 0.00 | 0.01 | 0.01 | 54 | 1015.3 |
| 20260509010155 | 56 | 270 | 0.0 | 0.0 | 0.00 | 0.01 | 0.01 | 53 | 1015.3 |
| 20260509005653 | 56 | 270 | 0.0 | 0.0 | 0.00 | 0.01 | 0.01 | 52 | 1015.2 |
| 20260509005150 | 56 | 270 | 0.0 | 0.0 | 0.00 | 0.01 | 0.01 | 52 | 1015.0 |
| 20260509004645 | 57 | 270 | 0.0 | 0.0 | 0.00 | 0.01 | 0.01 | 52 | 1015.4 |
| 20260509004142 | 57 | 270 | 0.0 | 0.0 | 0.00 | 0.01 | 0.01 | 51 | 1015.2 |
| 20260509003641 | 58 | 270 | 0.0 | 0.0 | 0.00 | 0.01 | 0.01 | 50 | 1015.2 |
| 20260509003137 | 58 | 270 | 0.0 | 0.0 | 0.00 | 0.01 | 0.01 | 49 | 1015.2 |
| 20260509002629 | 59 | 270 | 0.0 | 0.0 | 0.00 | 0.01 | 0.01 | 49 | 1014.9 |
| 20260509002126 | 59 | 270 | 0.0 | 0.0 | 0.00 | 0.01 | 0.01 | 48 | 1014.7 |
| 20260509001624 | 60 | 270 | 0.0 | 0.0 | 0.00 | 0.01 | 0.01 | 48 | 1014.9 |
| 20260509001119 | 60 | 270 | 0.0 | 0.0 | 0.00 | 0.01 | 0.01 | 47 | 1015.0 |
| 20260509000618 | 61 | 270 | 0.0 | 0.0 | 0.00 | 0.01 | 0.01 | 46 | 1014.8 |
| 20260509000114 | 61 | 270 | 0.0 | 0.0 | 0.00 | 0.01 | 0.01 | 46 | 1014.9 |
| 20260508235611 | 62 | 270 | 0.0 | 0.0 | 0.00 | 0.01 | 0.01 | 45 | 1014.8 |
| 20260508235108 | 62 | 180 | 0.0 | 0.0 | 0.00 | 0.01 | 0.01 | 44 | 1014.7 |
| 20260508234606 | 63 | 180 | 0.0 | 0.0 | 0.00 | 0.01 | 0.01 | 43 | 1015.0 |
| 20260508234102 | 64 | 180 | 0.0 | 0.0 | 0.00 | 0.01 | 0.01 | 42 | 1014.9 |
| 20260508233601 | 64 | 180 | 0.0 | 0.0 | 0.00 | 0.01 | 0.01 | 41 | 1015.1 |
| 20260508233058 | 64 | 173 | 3.0 | 3.0 | 0.00 | 0.01 | 0.01 | 41 | 1015.1 |
| 20260508232555 | 65 | 180 | 0.0 | 4.0 | 0.00 | 0.01 | 0.01 | 39 | 1015.0 |
| 20260508232052 | 65 | 203 | 0.0 | 3.0 | 0.00 | 0.01 | 0.01 | 38 | 1015.0 |
| 20260508231550 | 66 | 246 | 0.0 | 3.0 | 0.00 | 0.01 | 0.01 | 37 | 1015.2 |
| 20260508231047 | 66 | 180 | 1.0 | 6.0 | 0.00 | 0.01 | 0.01 | 37 | 1014.9 |
| 20260508230543 | 66 | 254 | 2.0 | 3.0 | 0.00 | 0.01 | 0.01 | 38 | 1014.9 |
| 20260508230040 | 66 | 251 | 0.0 | 2.0 | 0.00 | 0.01 | 0.01 | 38 | 1014.8 |
| 20260508225537 | 66 | 248 | 2.0 | 2.0 | 0.00 | 0.01 | 0.01 | 37 | 1014.8 |
| 20260508225033 | 67 | 248 | 2.0 | 5.0 | 0.00 | 0.01 | 0.01 | 35 | 1014.8 |
| 20260508224532 | 67 | 270 | 0.0 | 2.0 | 0.00 | 0.01 | 0.01 | 37 | 1015.0 |
| 20260508224029 | 67 | 203 | 0.0 | 4.0 | 0.00 | 0.01 | 0.01 | 37 | 1014.6 |
| 20260508223527 | 67 | 270 | 0.0 | 3.0 | 0.00 | 0.01 | 0.01 | 36 | 1014.8 |
| 20260508223024 | 67 | 248 | 2.0 | 5.0 | 0.00 | 0.01 | 0.01 | 37 | 1014.8 |
| 20260508222521 | 67 | 176 | 2.0 | 5.0 | 0.00 | 0.01 | 0.01 | 37 | 1014.6 |
| 20260508222017 | 67 | 263 | 0.0 | 3.0 | 0.00 | 0.01 | 0.01 | 37 | 1014.7 |
| 20260508221514 | 67 | 200 | 0.0 | 1.0 | 0.00 | 0.01 | 0.01 | 37 | 1014.6 |
| 20260508221010 | 67 | 201 | 3.0 | 3.0 | 0.00 | 0.01 | 0.01 | 37 | 1014.4 |
| 20260508220507 | 67 | 214 | 4.0 | 8.0 | 0.00 | 0.01 | 0.01 | 36 | 1014.3 |
| 20260508220003 | 67 | 229 | 2.0 | 4.0 | 0.00 | 0.01 | 0.01 | 37 | 1014.4 |
| 20260508215459 | 67 | 262 | 1.0 | 5.0 | 0.00 | 0.01 | 0.01 | 37 | 1014.7 |
| 20260508214956 | 67 | 349 | 0.0 | 2.0 | 0.00 | 0.01 | 0.01 | 37 | 1014.4 |
| 20260508214454 | 67 | 270 | 0.0 | 2.0 | 0.00 | 0.01 | 0.01 | 37 | 1014.6 |
| 20260508213950 | 67 | 270 | 1.0 | 3.0 | 0.00 | 0.01 | 0.01 | 36 | 1014.6 |
| 20260508213448 | 67 | 90 | 0.0 | 7.0 | 0.00 | 0.01 | 0.01 | 35 | 1014.5 |
| 20260508212942 | 67 | 233 | 2.0 | 4.0 | 0.00 | 0.01 | 0.01 | 36 | 1014.5 |
| 20260508212440 | 67 | 172 | 5.0 | 5.0 | 0.00 | 0.01 | 0.01 | 36 | 1014.4 |
| 20260508211936 | 67 | 206 | 2.0 | 5.0 | 0.00 | 0.01 | 0.01 | 37 | 1014.6 |
| 20260508211431 | 67 | 203 | 0.0 | 0.0 | 0.00 | 0.01 | 0.01 | 36 | 1014.4 |
| 20260508210929 | 68 | 270 | 0.0 | 3.0 | 0.00 | 0.01 | 0.01 | 36 | 1014.6 |
| 20260508210425 | 68 | 60 | 1.0 | 3.0 | 0.00 | 0.01 | 0.01 | 34 | 1014.8 |
| 20260508205921 | 68 | 234 | 0.0 | 3.0 | 0.00 | 0.01 | 0.01 | 36 | 1014.6 |
| 20260508205419 | 68 | 191 | 0.0 | 2.0 | 0.00 | 0.01 | 0.01 | 35 | 1014.8 |
| 20260508204915 | 68 | 270 | 0.0 | 6.0 | 0.00 | 0.01 | 0.01 | 35 | 1015.0 |
| 20260508204412 | 68 | 172 | 0.0 | 1.0 | 0.00 | 0.01 | 0.01 | 34 | 1014.9 |
| 20260508203908 | 68 | 126 | 1.0 | 3.0 | 0.00 | 0.01 | 0.01 | 35 | 1015.4 |
| 20260508203405 | 68 | 146 | 3.0 | 5.0 | 0.00 | 0.01 | 0.01 | 35 | 1015.4 |
| 20260508202900 | 68 | 109 | 0.0 | 2.0 | 0.00 | 0.01 | 0.01 | 35 | 1015.2 |
| 20260508202357 | 68 | 127 | 2.0 | 6.0 | 0.00 | 0.01 | 0.01 | 33 | 1015.4 |
| 20260508201855 | 68 | 279 | 0.0 | 2.0 | 0.00 | 0.01 | 0.01 | 36 | 1015.3 |
| 20260508201351 | 68 | 206 | 0.0 | 2.0 | 0.00 | 0.01 | 0.01 | 36 | 1015.4 |
| 20260508200848 | 68 | 264 | 2.0 | 7.0 | 0.00 | 0.01 | 0.01 | 34 | 1015.4 |
| 20260508200345 | 68 | 270 | 2.0 | 5.0 | 0.00 | 0.01 | 0.01 | 35 | 1015.4 |
| 20260508195840 | 68 | 212 | 0.0 | 6.0 | 0.00 | 0.01 | 0.01 | 33 | 1015.3 |
| 20260508195337 | 68 | 163 | 2.0 | 5.0 | 0.00 | 0.01 | 0.01 | 36 | 1015.3 |
| 20260508194833 | 68 | 194 | 1.0 | 3.0 | 0.00 | 0.01 | 0.01 | 35 | 1015.4 |
| 20260508194331 | 68 | 270 | 0.0 | 5.0 | 0.00 | 0.01 | 0.01 | 34 | 1015.7 |
| 20260508193827 | 69 | 83 | 1.0 | 4.0 | 0.00 | 0.01 | 0.01 | 33 | 1015.5 |
| 20260508193324 | 69 | 194 | 2.0 | 4.0 | 0.00 | 0.01 | 0.01 | 34 | 1015.6 |
| 20260508192820 | 69 | 45 | 0.0 | 3.0 | 0.00 | 0.01 | 0.01 | 35 | 1016.1 |
| 20260508192318 | 69 | 120 | 0.0 | 3.0 | 0.00 | 0.01 | 0.01 | 35 | 1015.9 |
| 20260508191815 | 70 | 180 | 2.0 | 6.0 | 0.00 | 0.01 | 0.01 | 35 | 1015.9 |
| 20260508191312 | 69 | 172 | 2.0 | 3.0 | 0.00 | 0.01 | 0.01 | 36 | 1015.8 |
| 20260508190809 | 69 | 270 | 0.0 | 2.0 | 0.00 | 0.01 | 0.01 | 36 | 1015.8 |
| 20260508190305 | 69 | 198 | 0.0 | 2.0 | 0.00 | 0.01 | 0.01 | 34 | 1016.2 |
| 20260508185802 | 69 | 195 | 6.0 | 6.0 | 0.00 | 0.01 | 0.01 | 37 | 1016.2 |
| 20260508185259 | 69 | 194 | 3.0 | 8.0 | 0.00 | 0.01 | 0.01 | 36 | 1016.2 |
| 20260508184756 | 69 | 229 | 0.0 | 3.0 | 0.00 | 0.01 | 0.01 | 36 | 1016.2 |
| 20260508184253 | 69 | 209 | 2.0 | 3.0 | 0.00 | 0.01 | 0.01 | 39 | 1016.3 |
| 20260508183750 | 69 | 198 | 0.0 | 6.0 | 0.00 | 0.01 | 0.01 | 39 | 1016.3 |
| 20260508183246 | 69 | 30 | 2.0 | 2.0 | 0.00 | 0.01 | 0.01 | 39 | 1016.3 |
| 20260508182743 | 69 | 26 | 2.0 | 2.0 | 0.00 | 0.01 | 0.01 | 38 | 1016.2 |
| 20260508182239 | 69 | 243 | 3.0 | 5.0 | 0.00 | 0.01 | 0.01 | 41 | 1016.5 |
| 20260508181735 | 69 | 276 | 0.0 | 2.0 | 0.00 | 0.01 | 0.01 | 38 | 1016.6 |
| 20260508181232 | 69 | 132 | 0.0 | 2.0 | 0.00 | 0.01 | 0.01 | 43 | 1016.7 |
| 20260508180729 | 69 | 243 | 3.0 | 3.0 | 0.00 | 0.01 | 0.01 | 43 | 1016.7 |
| 20260508180226 | 69 | 237 | 2.0 | 7.0 | 0.00 | 0.01 | 0.01 | 46 | 1016.7 |
| 20260508175722 | 69 | 206 | 2.0 | 3.0 | 0.00 | 0.01 | 0.01 | 47 | 1016.7 |
| 20260508175219 | 69 | 66 | 1.0 | 3.0 | 0.00 | 0.01 | 0.01 | 45 | 1016.7 |
| 20260508174717 | 69 | 270 | 0.0 | 3.0 | 0.00 | 0.01 | 0.01 | 46 | 1016.9 |
| 20260508174214 | 69 | 276 | 0.0 | 3.0 | 0.00 | 0.01 | 0.01 | 46 | 1017.0 |
| 20260508173710 | 68 | 195 | 0.0 | 3.0 | 0.00 | 0.01 | 0.01 | 48 | 1017.0 |
| 20260508173206 | 68 | 237 | 2.0 | 3.0 | 0.00 | 0.01 | 0.01 | 47 | 1017.1 |
| 20260508172704 | 67 | 270 | 1.0 | 5.0 | 0.00 | 0.01 | 0.01 | 49 | 1017.2 |
| 20260508172200 | 67 | 30 | 2.0 | 3.0 | 0.00 | 0.01 | 0.01 | 49 | 1017.0 |
| 20260508171657 | 67 | 66 | 1.0 | 4.0 | 0.00 | 0.01 | 0.01 | 48 | 1017.1 |
| 20260508171153 | 67 | 261 | 0.0 | 4.0 | 0.00 | 0.01 | 0.01 | 50 | 1017.0 |
| 20260508170650 | 67 | 205 | 3.0 | 5.0 | 0.00 | 0.01 | 0.01 | 47 | 1017.2 |
| 20260508170148 | 67 | 170 | 4.0 | 7.0 | 0.00 | 0.01 | 0.01 | 52 | 1017.3 |
| 20260508165645 | 67 | 215 | 0.0 | 4.0 | 0.00 | 0.01 | 0.01 | 56 | 1017.4 |
| 20260508165142 | 66 | 185 | 0.0 | 6.0 | 0.00 | 0.01 | 0.01 | 55 | 1017.3 |
| 20260508164638 | 66 | 214 | 3.0 | 3.0 | 0.00 | 0.01 | 0.01 | 59 | 1017.7 |
| 20260508164135 | 66 | 325 | 0.0 | 2.0 | 0.00 | 0.01 | 0.01 | 58 | 1017.7 |
| 20260508163633 | 66 | 261 | 0.0 | 2.0 | 0.00 | 0.01 | 0.01 | 59 | 1017.8 |
| 20260508163130 | 66 | 307 | 2.0 | 3.0 | 0.00 | 0.01 | 0.01 | 58 | 1018.0 |
| 20260508162626 | 67 | 209 | 3.0 | 4.0 | 0.00 | 0.01 | 0.01 | 61 | 1018.1 |
| 20260508162123 | 67 | 241 | 0.0 | 3.0 | 0.00 | 0.01 | 0.01 | 68 | 1018.2 |
| 20260508161620 | 66 | 0 | 1.0 | 2.0 | 0.00 | 0.01 | 0.01 | 67 | 1018.0 |
| 20260508161118 | 65 | 270 | 0.0 | 3.0 | 0.00 | 0.01 | 0.01 | 68 | 1018.2 |
| 20260508160616 | 65 | 297 | 0.0 | 2.0 | 0.00 | 0.01 | 0.01 | 66 | 1018.2 |
| 20260508160113 | 65 | 270 | 1.0 | 5.0 | 0.00 | 0.01 | 0.01 | 67 | 1018.3 |
| 20260508155610 | 64 | 23 | 0.0 | 0.0 | 0.00 | 0.01 | 0.01 | 72 | 1018.2 |
| 20260508155106 | 64 | 15 | 0.0 | 3.0 | 0.00 | 0.01 | 0.01 | 71 | 1018.3 |
| 20260508154603 | 64 | 8 | 0.0 | 2.0 | 0.00 | 0.01 | 0.01 | 74 | 1018.5 |
| 20260508154100 | 63 | 81 | 0.0 | 2.0 | 0.00 | 0.01 | 0.01 | 76 | 1018.6 |
| 20260508153557 | 63 | 74 | 0.0 | 3.0 | 0.00 | 0.01 | 0.01 | 76 | 1018.7 |
| 20260508153054 | 63 | 249 | 0.0 | 2.0 | 0.00 | 0.01 | 0.01 | 76 | 1018.6 |
| 20260508152551 | 63 | 323 | 3.0 | 3.0 | 0.00 | 0.01 | 0.01 | 76 | 1018.6 |
| 20260508152046 | 63 | 184 | 0.0 | 4.0 | 0.00 | 0.01 | 0.01 | 78 | 1018.8 |
| 20260508151543 | 62 | 206 | 1.0 | 2.0 | 0.00 | 0.01 | 0.01 | 79 | 1018.8 |
| 20260508151040 | 62 | 75 | 0.0 | 1.0 | 0.00 | 0.01 | 0.01 | 80 | 1018.7 |
| 20260508150537 | 61 | 24 | 2.0 | 3.0 | 0.00 | 0.01 | 0.01 | 80 | 1018.8 |
| 20260508150032 | 61 | 291 | 0.0 | 3.0 | 0.00 | 0.01 | 0.01 | 76 | 1018.9 |
| 20260508145524 | 61 | 0 | 2.0 | 3.0 | 0.00 | 0.01 | 0.01 | 81 | 1018.9 |
| 20260508145020 | 60 | 32 | 2.0 | 2.0 | 0.00 | 0.01 | 0.01 | 84 | 1019.0 |
| 20260508144518 | 60 | 81 | 0.0 | 2.0 | 0.00 | 0.01 | 0.01 | 84 | 1018.9 |
| 20260508144015 | 59 | 72 | 0.0 | 3.0 | 0.00 | 0.01 | 0.01 | 84 | 1018.8 |
| 20260508143513 | 58 | 66 | 0.0 | 4.0 | 0.00 | 0.01 | 0.01 | 84 | 1018.8 |
| 20260508143009 | 58 | 0 | 0.0 | 3.0 | 0.00 | 0.01 | 0.01 | 86 | 1018.8 |
| 20260508142506 | 57 | 307 | 2.0 | 2.0 | 0.00 | 0.01 | 0.01 | 87 | 1018.5 |
| 20260508142003 | 56 | 90 | 0.0 | 4.0 | 0.00 | 0.01 | 0.01 | 88 | 1018.8 |
| 20260508141459 | 56 | 340 | 0.0 | 1.0 | 0.00 | 0.01 | 0.01 | 89 | 1018.7 |
| 20260508140957 | 55 | 73 | 0.0 | 2.0 | 0.00 | 0.01 | 0.01 | 89 | 1018.7 |
| 20260508140454 | 55 | 90 | 0.0 | 2.0 | 0.05 | 0.01 | 0.01 | 89 | 1018.6 |
| 20260508135949 | 54 | 84 | 2.0 | 2.0 | 0.05 | 0.01 | 0.01 | 90 | 1018.5 |
| 20260508135446 | 54 | 14 | 0.0 | 2.0 | 0.00 | 0.00 | 0.00 | 90 | 1018.6 |
| 20260508134942 | 53 | 270 | 0.0 | 2.0 | 0.00 | 0.00 | 0.00 | 91 | 1018.6 |
| 20260508134439 | 52 | 334 | 3.0 | 5.0 | 0.00 | 0.00 | 0.00 | 91 | 1018.7 |
| 20260508133935 | 52 | 180 | 0.0 | 2.0 | 0.00 | 0.00 | 0.00 | 91 | 1018.6 |
| 20260508133433 | 51 | 84 | 0.0 | 2.0 | 0.00 | 0.00 | 0.00 | 91 | 1018.5 |
| 20260508132930 | 50 | 90 | 0.0 | 2.0 | 0.00 | 0.00 | 0.00 | 91 | 1018.3 |
| 20260508132428 | 50 | 286 | 1.0 | 2.0 | 0.00 | 0.00 | 0.00 | 91 | 1018.1 |
| 20260508131925 | 49 | 40 | 2.0 | 2.0 | 0.00 | 0.00 | 0.00 | 91 | 1018.5 |
| 20260508131420 | 49 | 337 | 0.0 | 1.0 | 0.00 | 0.00 | 0.00 | 91 | 1018.3 |
| 20260508130917 | 49 | 294 | 0.0 | 3.0 | 0.00 | 0.00 | 0.00 | 91 | 1018.0 |
| 20260508130414 | 49 | 307 | 2.0 | 2.0 | 0.00 | 0.00 | 0.00 | 91 | 1018.3 |
| 20260508125910 | 49 | 0 | 1.0 | 1.0 | 0.00 | 0.00 | 0.00 | 91 | 1018.2 |
| 20260508125406 | 49 | 356 | 0.0 | 2.0 | 0.00 | 0.00 | 0.00 | 91 | 1018.3 |
| 20260508124904 | 49 | 353 | 0.0 | 2.0 | 0.00 | 0.00 | 0.00 | 91 | 1018.3 |
| 20260508124401 | 49 | 83 | 0.0 | 1.0 | 0.00 | 0.00 | 0.00 | 91 | 1018.0 |
| 20260508123859 | 48 | 8 | 0.0 | 2.0 | 0.00 | 0.00 | 0.00 | 91 | 1018.2 |
| 20260508123357 | 48 | 60 | 0.0 | 0.0 | 0.00 | 0.00 | 0.00 | 91 | 1018.3 |
| 20260508122853 | 48 | 8 | 0.0 | 0.0 | 0.00 | 0.00 | 0.00 | 91 | 1018.2 |
| 20260508122350 | 47 | 73 | 0.0 | 2.0 | 0.00 | 0.00 | 0.00 | 91 | 1018.3 |
| 20260508121847 | 47 | 81 | 0.0 | 0.0 | 0.00 | 0.00 | 0.00 | 91 | 1018.0 |
| 20260508121346 | 46 | 66 | 0.0 | 1.0 | 0.00 | 0.00 | 0.00 | 92 | 1018.0 |
| 20260508120843 | 46 | 35 | 0.0 | 1.0 | 0.00 | 0.00 | 0.00 | 91 | 1018.0 |
| 20260508120341 | 45 | 0 | 0.0 | 0.0 | 0.00 | 0.00 | 0.00 | 91 | 1017.7 |
| 20260508115838 | 45 | 0 | 0.0 | 0.0 | 0.00 | 0.00 | 0.00 | 91 | 1017.8 |
| 20260508115335 | 44 | 0 | 0.0 | 1.0 | 0.00 | 0.00 | 0.00 | 91 | 1017.5 |
| 20260508114832 | 43 | 15 | 0.0 | 0.0 | 0.00 | 0.00 | 0.00 | 91 | 1017.6 |
| 20260508114329 | 43 | 15 | 0.0 | 0.0 | 0.00 | 0.00 | 0.00 | 91 | 1017.5 |
| 20260508113826 | 43 | 15 | 0.0 | 0.0 | 0.00 | 0.00 | 0.00 | 91 | 1017.4 |
| 20260508113324 | 43 | 15 | 0.0 | 0.0 | 0.00 | 0.00 | 0.00 | 91 | 1017.4 |
| 20260508112820 | 42 | 15 | 0.0 | 0.0 | 0.00 | 0.00 | 0.00 | 91 | 1017.5 |
| 20260508112317 | 42 | 15 | 0.0 | 0.0 | 0.00 | 0.00 | 0.00 | 91 | 1017.2 |
| 20260508111813 | 42 | 15 | 0.0 | 0.0 | 0.00 | 0.00 | 0.00 | 91 | 1017.4 |
| 20260508111311 | 42 | 23 | 0.0 | 0.0 | 0.00 | 0.00 | 0.00 | 91 | 1017.3 |
| 20260508110808 | 42 | 15 | 0.0 | 1.0 | 0.00 | 0.00 | 0.00 | 91 | 1017.1 |
| 20260508110306 | 42 | 195 | 0.0 | 0.0 | 0.00 | 0.00 | 0.00 | 91 | 1017.2 |
| 20260508105805 | 42 | 195 | 0.0 | 0.0 | 0.00 | 0.00 | 0.00 | 91 | 1017.0 |
| 20260508105305 | 42 | 195 | 0.0 | 0.0 | 0.00 | 0.00 | 0.00 | 91 | 1017.2 |
| 20260508104759 | 42 | 195 | 0.0 | 0.0 | 0.00 | 0.00 | 0.00 | 91 | 1016.8 |
| 20260508104256 | 42 | 195 | 0.0 | 0.0 | 0.00 | 0.00 | 0.00 | 91 | 1016.8 |
| 20260508103753 | 42 | 195 | 0.0 | 0.0 | 0.00 | 0.00 | 0.00 | 91 | 1017.0 |
| 20260508103250 | 42 | 195 | 0.0 | 0.0 | 0.00 | 0.00 | 0.00 | 91 | 1016.6 |
| 20260508102747 | 42 | 195 | 0.0 | 0.0 | 0.00 | 0.00 | 0.00 | 91 | 1016.6 |
| 20260508102246 | 42 | 195 | 0.0 | 0.0 | 0.00 | 0.00 | 0.00 | 91 | 1016.6 |
| 20260508101743 | 42 | 195 | 0.0 | 0.0 | 0.00 | 0.00 | 0.00 | 91 | 1016.4 |
| 20260508101240 | 43 | 195 | 0.0 | 0.0 | 0.00 | 0.00 | 0.00 | 91 | 1016.5 |
| 20260508100738 | 43 | 195 | 0.0 | 0.0 | 0.00 | 0.00 | 0.00 | 91 | 1016.4 |
| 20260508100235 | 43 | 195 | 0.0 | 0.0 | 0.00 | 0.00 | 0.00 | 91 | 1016.1 |
| 20260508095731 | 43 | 195 | 0.0 | 0.0 | 0.00 | 0.00 | 0.00 | 91 | 1016.2 |
| 20260508095229 | 43 | 195 | 0.0 | 0.0 | 0.00 | 0.00 | 0.00 | 91 | 1016.1 |
| 20260508094725 | 43 | 195 | 0.0 | 0.0 | 0.00 | 0.00 | 0.00 | 91 | 1016.0 |
| 20260508094222 | 43 | 195 | 0.0 | 0.0 | 0.00 | 0.00 | 0.00 | 91 | 1016.0 |
| 20260508093720 | 43 | 195 | 0.0 | 0.0 | 0.00 | 0.00 | 0.00 | 91 | 1016.2 |
| 20260508093217 | 43 | 195 | 0.0 | 0.0 | 0.00 | 0.00 | 0.00 | 91 | 1016.1 |
| 20260508092714 | 43 | 195 | 0.0 | 0.0 | 0.00 | 0.00 | 0.00 | 91 | 1016.0 |
| 20260508092212 | 44 | 195 | 0.0 | 0.0 | 0.00 | 0.00 | 0.00 | 91 | 1015.9 |
| 20260508091710 | 44 | 195 | 0.0 | 0.0 | 0.00 | 0.00 | 0.00 | 91 | 1015.7 |
| 20260508091207 | 44 | 195 | 0.0 | 0.0 | 0.00 | 0.00 | 0.00 | 91 | 1015.8 |
| 20260508090704 | 44 | 195 | 0.0 | 0.0 | 0.00 | 0.00 | 0.00 | 91 | 1015.8 |
| 20260508090202 | 44 | 195 | 0.0 | 0.0 | 0.00 | 0.00 | 0.00 | 91 | 1015.7 |
| 20260508085657 | 44 | 195 | 0.0 | 0.0 | 0.00 | 0.00 | 0.00 | 91 | 1015.9 |
| 20260508085155 | 44 | 195 | 0.0 | 0.0 | 0.00 | 0.00 | 0.00 | 91 | 1015.9 |
| 20260508084651 | 44 | 195 | 0.0 | 0.0 | 0.00 | 0.00 | 0.00 | 91 | 1015.6 |
| 20260508084148 | 44 | 195 | 0.0 | 0.0 | 0.00 | 0.00 | 0.00 | 91 | 1015.6 |
| 20260508083646 | 44 | 195 | 0.0 | 0.0 | 0.00 | 0.00 | 0.00 | 91 | 1015.6 |
| 20260508083144 | 44 | 195 | 0.0 | 0.0 | 0.00 | 0.00 | 0.00 | 91 | 1015.4 |
| 20260508082638 | 44 | 195 | 0.0 | 0.0 | 0.00 | 0.00 | 0.00 | 91 | 1015.4 |
| 20260508082136 | 45 | 195 | 0.0 | 0.0 | 0.00 | 0.00 | 0.00 | 91 | 1015.4 |
| 20260508081633 | 45 | 195 | 0.0 | 0.0 | 0.00 | 0.00 | 0.00 | 91 | 1015.3 |
| 20260508081129 | 45 | 195 | 0.0 | 0.0 | 0.00 | 0.00 | 0.00 | 91 | 1015.3 |
| 20260508080627 | 45 | 195 | 0.0 | 0.0 | 0.00 | 0.00 | 0.00 | 91 | 1015.4 |
| 20260508080125 | 45 | 195 | 0.0 | 0.0 | 0.00 | 0.00 | 0.00 | 91 | 1015.3 |
| 20260508075621 | 45 | 195 | 0.0 | 0.0 | 0.00 | 0.00 | 0.00 | 90 | 1015.3 |
| 20260508075118 | 45 | 195 | 0.0 | 0.0 | 0.00 | 0.00 | 0.00 | 90 | 1015.3 |
| 20260508074616 | 45 | 195 | 0.0 | 0.0 | 0.00 | 0.00 | 0.00 | 90 | 1015.3 |
| 20260508074113 | 45 | 195 | 0.0 | 0.0 | 0.00 | 0.00 | 0.00 | 91 | 1015.3 |
| 20260508073610 | 46 | 195 | 0.0 | 0.0 | 0.00 | 0.00 | 0.00 | 91 | 1015.1 |
| 20260508073108 | 46 | 195 | 0.0 | 0.0 | 0.00 | 0.00 | 0.00 | 90 | 1015.3 |
| 20260508072603 | 46 | 8 | 0.0 | 0.0 | 0.00 | 0.00 | 0.00 | 90 | 1015.1 |
| 20260508072100 | 46 | 8 | 0.0 | 0.0 | 0.00 | 0.00 | 0.00 | 91 | 1014.9 |
| 20260508071558 | 46 | 8 | 0.0 | 0.0 | 0.00 | 0.00 | 0.00 | 91 | 1015.1 |
| 20260508071056 | 46 | 8 | 0.0 | 0.0 | 0.00 | 0.00 | 0.00 | 91 | 1014.9 |
| 20260508070553 | 46 | 8 | 0.0 | 0.0 | 0.00 | 0.00 | 0.00 | 90 | 1014.8 |
| 20260508070052 | 46 | 8 | 0.0 | 0.0 | 0.00 | 0.00 | 0.00 | 90 | 1014.9 |
| 20260508065549 | 46 | 8 | 0.0 | 0.0 | 0.00 | 0.00 | 0.00 | 90 | 1014.9 |
| 20260508065047 | 46 | 6 | 0.0 | 0.0 | 0.00 | 0.00 | 0.00 | 90 | 1014.9 |
| 20260508064544 | 46 | 352 | 0.0 | 0.0 | 0.00 | 0.00 | 0.00 | 90 | 1014.8 |
| 20260508064042 | 46 | 352 | 0.0 | 0.0 | 0.00 | 0.00 | 0.00 | 90 | 1014.8 |
| 20260508063539 | 46 | 352 | 0.0 | 0.0 | 0.00 | 0.00 | 0.00 | 90 | 1014.9 |
| 20260508063037 | 46 | 352 | 0.0 | 0.0 | 0.00 | 0.00 | 0.00 | 90 | 1014.8 |
| 20260508062534 | 46 | 352 | 0.0 | 0.0 | 0.00 | 0.00 | 0.00 | 90 | 1015.0 |
| 20260508062031 | 47 | 352 | 0.0 | 0.0 | 0.00 | 0.00 | 0.00 | 90 | 1014.8 |
| 20260508061529 | 47 | 8 | 0.0 | 0.0 | 0.00 | 0.00 | 0.00 | 90 | 1015.0 |
| 20260508061025 | 47 | 8 | 0.0 | 0.0 | 0.00 | 0.00 | 0.00 | 90 | 1014.7 |
| 20260508060522 | 47 | 0 | 0.0 | 1.0 | 0.00 | 0.00 | 0.00 | 90 | 1014.6 |
| 20260508060020 | 47 | 8 | 0.0 | 0.0 | 0.00 | 0.00 | 0.00 | 90 | 1014.8 |
| 20260508055515 | 47 | 90 | 0.0 | 0.0 | 0.00 | 0.00 | 0.00 | 90 | 1015.0 |
| 20260508055012 | 47 | 90 | 0.0 | 1.0 | 0.00 | 0.00 | 0.00 | 90 | 1014.8 |
| 20260508054509 | 47 | 15 | 0.0 | 0.0 | 0.00 | 0.00 | 0.00 | 90 | 1014.8 |
| 20260508054006 | 48 | 15 | 0.0 | 0.0 | 0.00 | 0.00 | 0.00 | 90 | 1014.8 |
| 20260508053502 | 48 | 15 | 0.0 | 0.0 | 0.00 | 0.00 | 0.00 | 90 | 1014.7 |
| 20260508053001 | 48 | 15 | 0.0 | 0.0 | 0.00 | 0.00 | 0.00 | 90 | 1014.6 |
| 20260508052458 | 48 | 15 | 0.0 | 0.0 | 0.00 | 0.00 | 0.00 | 90 | 1014.5 |
| 20260508051954 | 48 | 15 | 0.0 | 0.0 | 0.00 | 0.00 | 0.00 | 90 | 1014.5 |
| 20260508051449 | 48 | 15 | 0.0 | 0.0 | 0.00 | 0.00 | 0.00 | 90 | 1014.4 |
| 20260508050946 | 48 | 15 | 0.0 | 0.0 | 0.00 | 0.00 | 0.00 | 90 | 1014.6 |
| 20260508050442 | 48 | 15 | 0.0 | 0.0 | 0.00 | 0.00 | 0.00 | 90 | 1014.5 |
| 20260508045939 | 48 | 15 | 0.0 | 0.0 | 0.00 | 0.00 | 0.00 | 90 | 1014.6 |
| 20260508045437 | 48 | 15 | 0.0 | 0.0 | 0.00 | 0.00 | 0.00 | 90 | 1014.6 |
| 20260508044934 | 48 | 15 | 0.0 | 0.0 | 0.00 | 0.00 | 0.00 | 90 | 1014.4 |
| 20260508044431 | 48 | 15 | 0.0 | 0.0 | 0.00 | 0.00 | 0.00 | 90 | 1014.4 |
| 20260508043926 | 49 | 15 | 0.0 | 0.0 | 0.00 | 0.00 | 0.00 | 90 | 1014.5 |
| 20260508043424 | 49 | 15 | 0.0 | 0.0 | 0.00 | 0.00 | 0.00 | 90 | 1013.9 |
| 20260508042919 | 49 | 15 | 0.0 | 0.0 | 0.00 | 0.00 | 0.00 | 90 | 1014.0 |
| 20260508042418 | 49 | 15 | 0.0 | 0.0 | 0.00 | 0.00 | 0.00 | 90 | 1013.9 |
| 20260508041914 | 49 | 15 | 0.0 | 0.0 | 0.00 | 0.00 | 0.00 | 90 | 1013.8 |
| 20260508041411 | 49 | 15 | 0.0 | 0.0 | 0.00 | 0.00 | 0.00 | 90 | 1014.0 |
| 20260508040907 | 49 | 15 | 0.0 | 0.0 | 0.00 | 0.00 | 0.00 | 90 | 1014.0 |
| 20260508040405 | 49 | 15 | 0.0 | 0.0 | 0.00 | 0.00 | 0.00 | 90 | 1014.3 |
| 20260508035903 | 49 | 15 | 0.0 | 0.0 | 0.00 | 0.38 | 0.38 | 90 | 1014.0 |
| 20260508035359 | 50 | 15 | 0.0 | 0.0 | 0.00 | 0.38 | 0.38 | 90 | 1013.9 |
| 20260508034856 | 50 | 15 | 0.0 | 0.0 | 0.00 | 0.38 | 0.38 | 90 | 1013.9 |
| 20260508034354 | 50 | 15 | 0.0 | 0.0 | 0.00 | 0.38 | 0.38 | 90 | 1014.0 |
| 20260508033850 | 50 | 15 | 0.0 | 0.0 | 0.00 | 0.38 | 0.38 | 90 | 1013.8 |
| 20260508033348 | 50 | 15 | 0.0 | 1.0 | 0.00 | 0.38 | 0.38 | 90 | 1013.9 |
| 20260508032846 | 50 | 0 | 0.0 | 0.0 | 0.00 | 0.38 | 0.38 | 90 | 1013.9 |
| 20260508032343 | 50 | 0 | 0.0 | 0.0 | 0.00 | 0.38 | 0.38 | 90 | 1013.8 |
| 20260508031839 | 50 | 0 | 0.0 | 0.0 | 0.00 | 0.38 | 0.38 | 90 | 1013.8 |
| 20260508031336 | 50 | 0 | 0.0 | 0.0 | 0.00 | 0.38 | 0.38 | 90 | 1013.6 |
| 20260508030827 | 51 | 0 | 0.0 | 0.0 | 0.00 | 0.38 | 0.38 | 90 | 1013.7 |
| 20260508030324 | 51 | 0 | 0.0 | 0.0 | 0.00 | 0.38 | 0.38 | 90 | 1013.7 |
| 20260508025821 | 51 | 0 | 0.0 | 0.0 | 0.00 | 0.38 | 0.38 | 90 | 1013.8 |
| 20260508025318 | 51 | 0 | 0.0 | 0.0 | 0.00 | 0.38 | 0.38 | 90 | 1013.8 |
| 20260508024814 | 51 | 0 | 0.0 | 0.0 | 0.00 | 0.38 | 0.38 | 90 | 1013.8 |
| 20260508024311 | 51 | 0 | 0.0 | 0.0 | 0.00 | 0.38 | 0.38 | 90 | 1013.3 |
| 20260508023808 | 51 | 0 | 0.0 | 0.0 | 0.00 | 0.38 | 0.38 | 90 | 1013.6 |
| 20260508023305 | 51 | 0 | 0.0 | 0.0 | 0.00 | 0.38 | 0.38 | 90 | 1013.2 |
| 20260508022801 | 52 | 0 | 0.0 | 0.0 | 0.00 | 0.38 | 0.38 | 90 | 1013.1 |